Location: Innerarity Island Observatory
(30.3139°N, 87.4867°W)
Time: 02:38:15
(UTC-05:00)

JAS-2 - Visible Passes

Search period start: 02 June 2015 00:00
Search period end: 12 June 2015 00:00
Orbit: 799 x 1322 km, 98.5° (Epoch: 01 June)

Date Brightness Start Highest point End Pass type
(mag) Time Alt. Az. Time Alt. Az. Time Alt. Az.
02 Jun 10.4 04:02:29 10° NNE 04:07:24 38° E 04:12:45 10° SSE visible
03 Jun 12.0 03:11:25 10° E 03:11:56 10° E 03:12:59 10° ESE visible
03 Jun 9.3 04:52:13 10° N 04:57:29 67° WNW 05:03:14 10° SSW visible
04 Jun 10.6 03:57:32 10° NNE 04:02:24 35° E 04:07:45 10° SSE visible
05 Jun 9.3 04:47:09 10° N 04:52:30 74° WNW 04:58:24 10° SSW visible
06 Jun 10.8 03:52:34 10° NE 03:57:24 33° E 04:02:46 10° SSE visible
07 Jun 9.3 04:42:05 10° N 04:47:31 81° WNW 04:53:33 10° SSW visible
08 Jun 10.9 03:47:37 10° NE 03:52:25 31° E 03:57:46 10° SSE visible
09 Jun 9.4 04:37:01 10° NNE 04:42:33 88° WNW 04:48:43 10° SSW visible
10 Jun 11.0 03:42:42 10° NE 03:47:26 29° E 03:52:46 10° SSE visible
11 Jun 9.5 04:31:58 10° NNE 04:37:35 86° ESE 04:43:53 10° SSW visible
